Date,TemperatureHighF,TemperatureAvgF,TemperatureLowF,DewpointHighF,DewpointAvgF,DewpointLowF,HumidityHigh,HumidityAvg,HumidityLow,PressureMaxIn,PressureMinIn,WindSpeedMaxMPH,WindSpeedAvgMPH,GustSpeedMaxMPH,PrecipitationSumIn
2013-2-1,47.7,36.8,25.2,27.5,22.6,18.9,79,58,36,30.20,30.03,2,0,25,0.07
2013-2-2,57.6,39.2,23.8,25.2,20.6,14.4,80,52,18,30.33,30.19,0,0,0,0.00
2013-2-3,54.2,40.9,27.3,23.7,17.8,11.8,71,43,21,30.25,29.89,0,0,0,0.00
2013-2-4,51.7,40.5,28.3,21.7,16.9,13.7,57,40,22,29.98,29.84,0,0,1,0.00
2013-2-5,59.8,45.0,33.1,25.0,22.4,19.5,59,42,25,30.05,29.83,0,0,1,0.00
2013-2-6,54.2,43.0,33.8,36.4,29.1,24.5,99,61,36,30.09,29.80,1,0,5,0.12
2013-2-7,46.3,35.8,26.9,33.9,28.0,19.8,100,76,48,30.18,30.01,0,0,5,0.00
2013-2-8,52.2,39.2,30.2,26.0,22.2,19.4,65,52,34,30.01,29.67,0,0,2,0.00
2013-2-9,37.6,31.1,25.5,30.5,24.2,18.2,96,76,56,29.70,29.50,0,0,3,0.00
2013-2-10,35.0,27.4,21.8,23.6,20.1,15.7,96,75,48,30.03,29.56,8,0,11,0.01
2013-2-11,28.1,22.6,17.1,20.4,18.4,15.4,96,85,69,30.03,29.92,0,0,0,0.00
2013-2-12,40.9,28.6,16.2,17.2,11.4,5.5,89,53,24,30.02,29.97,0,0,1,0.00
2013-2-13,45.5,35.3,22.0,21.7,17.3,11.6,68,49,31,30.01,29.90,19,0,26,0.86
2013-2-14,40.8,28.0,21.7,25.8,21.3,17.6,96,78,39,30.27,29.98,4,0,13,0.00
2013-2-15,38.5,26.0,15.1,23.3,18.7,13.2,94,76,46,30.29,30.20,0,0,1,0.06
2013-2-16,54.4,43.1,26.0,22.9,19.8,16.5,72,41,26,30.21,29.96,0,0,6,0.00
2013-2-17,60.2,44.1,29.1,22.8,12.9,0.3,62,33,9,29.97,29.54,0,0,5,0.14
2013-2-18,39.4,31.7,24.8,24.4,16.9,8.2,92,58,30,30.07,29.77,12,0,24,0.13
2013-2-19,42.5,30.2,17.9,18.8,14.5,9.4,72,53,36,30.06,29.76,0,0,0,0.00
2013-2-20,36.0,26.4,20.6,29.2,21.6,17.6,99,83,59,29.77,29.59,0,0,0,0.00
2013-2-21,26.1,21.1,16.1,22.8,19.4,15.3,98,93,82,29.85,29.66,0,0,0,0.11
2013-2-22,35.1,23.9,13.8,24.7,18.9,12.8,96,82,64,29.91,29.80,0,0,7,0.13
2013-2-23,47.4,31.2,18.8,30.0,20.9,11.9,97,68,40,29.83,29.56,0,0,4,0.06
2013-2-24,29.0,26.0,23.5,28.4,25.6,22.4,99,98,95,30.09,29.69,8,0,8,0.01
2013-2-25,38.2,25.7,14.0,22.8,17.5,11.9,96,73,44,30.07,29.80,0,0,0,0.13
2013-2-26,32.0,26.5,19.9,28.2,22.1,15.1,95,84,72,30.12,29.75,14,0,14,0.07
2013-2-27,37.2,27.4,16.8,19.8,16.2,11.7,84,64,42,30.22,30.11,6,0,6,0.00
2013-2-28,40.9,30.0,14.8,20.3,15.5,8.7,82,56,37,30.24,30.13,23,0,26,0.04